FW7144 Weather Reports


Display with metric or nautical units.
time (UTC)temp
F
wind
direction
speed
MPH
gust
MPH
rain 1hr
in
rain 24hr
in
rain mn
in
humidity
%
barometer
mb
20260507020805 74 159 2.0 6.0 0.00 0.00 0.00 37 1019.6
20260507020205 75 215 0.0 10.0 0.00 0.00 0.00 36 1019.5
20260507015605 76 230 4.0 9.0 0.00 0.00 0.00 34 1019.5
20260507015005 77 188 3.0 9.0 0.00 0.00 0.00 30 1019.3
20260507014430 78 165 0.0 11.0 0.00 0.00 0.00 26 1019.1
20260507013205 80 103 5.0 8.0 0.00 0.00 0.00 15 1018.5
20260507012630 79 98 3.0 10.0 0.00 0.00 0.00 16 1018.4
20260507012005 80 119 5.0 8.0 0.00 0.00 0.00 15 1018.3
20260507011417 79 94 0.0 4.0 0.00 0.00 0.00 15 1018.3
20260507010817 80 110 2.0 7.0 0.00 0.00 0.00 15 1018.3
20260507010205 81 120 3.0 8.0 0.00 0.00 0.00 14 1018.2
20260507005630 82 102 4.0 9.0 0.00 0.00 0.00 13 1018.2
20260507005030 82 121 3.0 11.0 0.00 0.00 0.00 13 1018.1
20260507004430 83 87 3.0 10.0 0.00 0.00 0.00 13 1018.0
20260507003805 83 135 6.0 16.0 0.00 0.00 0.00 13 1018.0
20260507003218 84 107 4.0 9.0 0.00 0.00 0.00 12 1018.0
20260507002605 85 79 0.0 5.0 0.00 0.00 0.00 12 1018.0
20260507002005 84 352 0.0 7.0 0.00 0.00 0.00 13 1018.0
20260507001405 85 347 0.0 8.0 0.00 0.00 0.00 13 1018.0
20260507000805 87 312 1.0 12.0 0.00 0.00 0.00 12 1018.0
20260507000205 88 253 3.0 15.0 0.00 0.00 0.00 11 1018.1
20260506235605 88 26 3.0 13.0 0.00 0.00 0.00 12 1018.0
20260506235005 88 334 3.0 18.0 0.00 0.00 0.00 10 1018.0
20260506234405 88 35 3.0 15.0 0.00 0.00 0.00 11 1018.0
20260506233805 88 52 0.0 10.0 0.00 0.00 0.00 11 1017.9
20260506233205 87 334 0.0 8.0 0.00 0.00 0.00 13 1018.0
20260506232605 88 316 0.0 11.0 0.00 0.00 0.00 12 1017.9
20260506232005 89 278 0.0 9.0 0.00 0.00 0.00 11 1017.9
20260506231406 89 295 2.0 9.0 0.00 0.00 0.00 11 1018.0
20260506230805 89 41 0.0 12.0 0.00 0.00 0.00 12 1018.0
20260506230230 88 143 0.0 12.0 0.00 0.00 0.00 12 1018.1
20260506225605 86 346 2.0 13.0 0.00 0.00 0.00 13 1018.1
20260506225005 88 317 0.0 13.0 0.00 0.00 0.00 12 1018.1
20260506224417 88 333 2.0 12.0 0.00 0.00 0.00 13 1018.2
20260506223805 89 343 2.0 9.0 0.00 0.00 0.00 14 1018.3
20260506223206 89 354 0.0 10.0 0.00 0.00 0.00 10 1018.3
20260506222630 89 350 1.0 11.0 0.00 0.00 0.00 14 1018.3
20260506222005 90 338 2.0 7.0 0.00 0.00 0.00 11 1018.3
20260506221418 90 314 0.0 13.0 0.00 0.00 0.00 11 1018.5
20260506220830 89 351 0.0 14.0 0.00 0.00 0.00 10 1018.6
20260506220205 90 310 1.0 17.0 0.00 0.00 0.00 13 1018.7
20260506215643 88 324 4.0 12.0 0.00 0.00 0.00 12 1018.6
20260506215006 89 331 0.0 9.0 0.00 0.00 0.00 11 1018.7
20260506214405 90 2 0.0 13.0 0.00 0.00 0.00 12 1018.8
20260506213805 89 354 2.0 11.0 0.00 0.00 0.00 9 1018.8
20260506213205 90 349 1.0 21.0 0.00 0.00 0.00 14 1018.9
20260506212605 90 40 3.0 13.0 0.00 0.00 0.00 11 1018.7
20260506212005 89 335 2.0 16.0 0.00 0.00 0.00 14 1019.0
20260506211430 89 91 1.0 13.0 0.00 0.00 0.00 12 1019.1
20260506210805 88 314 6.0 21.0 0.00 0.00 0.00 10 1019.2
20260506210205 88 62 3.0 14.0 0.00 0.00 0.00 13 1019.2
20260506205605 89 335 6.0 11.0 0.00 0.00 0.00 12 1019.4
20260506205005 90 317 0.0 18.0 0.00 0.00 0.00 11 1019.3
20260506204405 89 343 0.0 13.0 0.00 0.00 0.00 14 1019.3
20260506203805 89 19 1.0 17.0 0.00 0.00 0.00 12 1019.4
20260506203205 89 0 0.0 21.0 0.00 0.00 0.00 10 1019.6
20260506202605 89 275 0.0 14.0 0.00 0.00 0.00 17 1019.6
20260506202017 90 341 2.0 13.0 0.00 0.00 0.00 11 1019.6
20260506201430 89 44 0.0 11.0 0.00 0.00 0.00 12 1019.6
20260506200805 89 59 0.0 13.0 0.00 0.00 0.00 11 1019.8
20260506200205 87 28 1.0 16.0 0.00 0.00 0.00 12 1019.8
20260506195605 88 2 4.0 20.0 0.00 0.00 0.00 11 1019.9
20260506195005 88 8 1.0 20.0 0.00 0.00 0.00 12 1019.9
20260506194405 87 296 4.0 17.0 0.00 0.00 0.00 11 1020.0
20260506193842 88 324 6.0 21.0 0.00 0.00 0.00 13 1020.2
20260506193206 88 289 3.0 22.0 0.00 0.00 0.00 12 1020.0
20260506192605 87 50 3.0 16.0 0.00 0.00 0.00 11 1020.2
20260506192006 88 12 4.0 25.0 0.00 0.00 0.00 10 1020.3
20260506191406 87 315 0.0 12.0 0.00 0.00 0.00 12 1020.1
20260506190805 87 340 0.0 21.0 0.00 0.00 0.00 13 1020.4
20260506190205 88 55 3.0 8.0 0.00 0.00 0.00 10 1020.4
20260506185605 88 352 0.0 13.0 0.00 0.00 0.00 13 1020.4
20260506185005 87 341 0.0 14.0 0.00 0.00 0.00 12 1020.4
20260506184405 88 348 0.0 12.0 0.00 0.00 0.00 15 1020.5
20260506183205 86 316 0.0 21.0 0.00 0.00 0.00 13 1020.5
20260506182606 86 287 4.0 12.0 0.00 0.00 0.00 12 1020.7
20260506182005 87 9 0.0 10.0 0.00 0.00 0.00 14 1020.8
20260506181406 85 113 0.0 14.0 0.00 0.00 0.00 12 1020.8
20260506180818 86 39 0.0 13.0 0.00 0.00 0.00 11 1020.9
20260506180205 86 24 3.0 14.0 0.00 0.00 0.00 13 1021.1
20260506175605 87 87 0.0 11.0 0.00 0.00 0.00 11 1021.0
20260506175005 86 15 0.0 10.0 0.00 0.00 0.00 12 1021.0
20260506174405 87 0 0.0 12.0 0.00 0.00 0.00 14 1021.0
20260506173805 85 331 4.0 13.0 0.00 0.00 0.00 15 1021.0
20260506173205 86 21 0.0 17.0 0.00 0.00 0.00 13 1021.0
20260506172605 85 336 4.0 18.0 0.00 0.00 0.00 16 1021.2
20260506172006 85 344 3.0 12.0 0.00 0.00 0.00 14 1021.2
20260506171418 84 284 4.0 11.0 0.00 0.00 0.00 13 1021.1
20260506170818 83 261 3.0 15.0 0.00 0.00 0.00 16 1021.2
20260506170205 83 346 2.0 6.0 0.00 0.00 0.00 16 1021.3
20260506165617 82 319 2.0 9.0 0.00 0.00 0.00 14 1021.4
20260506165005 82 262 0.0 6.0 0.00 0.00 0.00 13 1021.4
20260506164406 81 269 0.0 8.0 0.00 0.00 0.00 15 1021.4
20260506163805 81 269 6.0 10.0 0.00 0.00 0.00 15 1021.4
20260506163205 81 135 0.0 8.0 0.00 0.00 0.00 13 1021.4
20260506162605 81 300 2.0 7.0 0.00 0.00 0.00 15 1021.4
20260506162005 80 302 0.0 8.0 0.00 0.00 0.00 14 1021.4
20260506161430 81 338 3.0 7.0 0.00 0.00 0.00 19 1021.5
20260506160830 80 308 3.0 8.0 0.00 0.00 0.00 16 1021.5
20260506160205 79 63 0.0 5.0 0.00 0.00 0.00 15 1021.5
20260506155605 79 96 3.0 6.0 0.00 0.00 0.00 14 1021.5
20260506155005 79 107 0.0 4.0 0.00 0.00 0.00 15 1021.6
20260506154405 78 124 1.0 6.0 0.00 0.00 0.00 14 1021.6
20260506153830 77 83 2.0 7.0 0.00 0.00 0.00 14 1021.6
20260506153205 78 87 0.0 5.0 0.00 0.00 0.00 15 1021.6
20260506152605 77 329 0.0 5.0 0.00 0.00 0.00 15 1021.7
20260506152005 76 114 2.0 5.0 0.00 0.00 0.00 16 1021.7
20260506151405 77 324 0.0 2.0 0.00 0.00 0.00 17 1021.7
20260506150805 76 299 0.0 4.0 0.00 0.00 0.00 18 1021.7
20260506150206 76 274 0.0 4.0 0.00 0.00 0.00 20 1021.8
20260506145605 76 241 0.0 5.0 0.00 0.00 0.00 20 1021.8
20260506145030 75 272 0.0 3.0 0.00 0.00 0.00 22 1021.8
20260506144405 75 272 0.0 3.0 0.00 0.00 0.00 21 1021.8
20260506143805 73 237 0.0 3.0 0.00 0.00 0.00 25 1021.9
20260506143205 72 309 0.0 2.0 0.00 0.00 0.00 26 1022.0
20260506142605 70 288 0.0 0.0 0.00 0.00 0.00 28 1022.0
20260506142043 68 208 0.0 0.0 0.00 0.00 0.00 32 1022.0
20260506141405 67 220 0.0 0.0 0.00 0.00 0.00 36 1021.9
20260506140805 65 220 0.0 2.0 0.00 0.00 0.00 34 1021.9
20260506140206 63 70 0.0 6.0 0.00 0.00 0.00 37 1021.9
20260506135605 62 105 0.0 5.0 0.00 0.00 0.00 39 1021.8
20260506135005 61 98 2.0 4.0 0.00 0.00 0.00 39 1021.9
20260506134406 60 73 2.0 4.0 0.00 0.00 0.00 39 1021.8
20260506133805 59 56 1.0 3.0 0.00 0.00 0.00 44 1021.8
20260506133205 58 91 3.0 4.0 0.00 0.00 0.00 43 1021.7
20260506132630 56 71 2.0 3.0 0.00 0.00 0.00 45 1021.7
20260506132005 56 74 1.0 5.0 0.00 0.00 0.00 43 1021.6
20260506131405 54 115 3.0 6.0 0.00 0.00 0.00 48 1021.5
20260506130805 52 106 3.0 5.0 0.00 0.00 0.00 51 1021.5
20260506130205 49 75 2.0 5.0 0.00 0.00 0.00 57 1021.3
20260506125605 47 67 2.0 6.0 0.00 0.00 0.00 60 1021.3
20260506125005 47 134 2.0 4.0 0.00 0.00 0.00 61 1021.3
20260506124405 44 83 0.0 3.0 0.00 0.00 0.00 67 1021.3
20260506123805 43 116 0.0 2.0 0.00 0.00 0.00 68 1021.2
20260506123230 42 92 0.0 2.0 0.00 0.00 0.00 69 1021.3
20260506122605 42 101 0.0 2.0 0.00 0.00 0.00 68 1021.2
20260506122005 42 85 0.0 3.0 0.00 0.00 0.00 68 1021.1
20260506121405 43 116 2.0 3.0 0.00 0.00 0.00 68 1021.0
20260506120818 43 58 0.0 3.0 0.00 0.00 0.00 66 1021.0
20260506120205 45 129 0.0 5.0 0.00 0.00 0.00 61 1021.0
20260506115605 47 100 2.0 5.0 0.00 0.00 0.00 60 1020.9
20260506115005 45 145 2.0 6.0 0.00 0.00 0.00 65 1020.9
20260506114405 44 117 1.0 5.0 0.00 0.00 0.00 65 1020.9
20260506113805 43 142 3.0 5.0 0.00 0.00 0.00 67 1020.8
20260506113205 43 137 2.0 6.0 0.00 0.00 0.00 68 1020.8
20260506112605 42 129 2.0 6.0 0.00 0.00 0.00 66 1020.8
20260506112005 43 122 2.0 4.0 0.00 0.00 0.00 64 1020.8
20260506111405 44 114 0.0 7.0 0.00 0.00 0.00 66 1020.8
20260506110830 43 106 2.0 6.0 0.00 0.00 0.00 67 1020.8
20260506110205 43 113 0.0 3.0 0.00 0.00 0.00 62 1020.8
20260506105655 45 81 0.0 2.0 0.00 0.00 0.00 61 1020.7
20260506105005 45 74 0.0 4.0 0.00 0.00 0.00 63 1020.6
20260506104405 45 6 0.0 5.0 0.00 0.00 0.00 63 1020.6
20260506103805 45 62 0.0 4.0 0.00 0.00 0.00 62 1020.6
20260506103217 46 110 2.0 4.0 0.00 0.00 0.00 61 1020.6
20260506102605 44 143 0.0 3.0 0.00 0.00 0.00 65 1020.5
20260506102017 44 102 2.0 4.0 0.00 0.00 0.00 64 1020.4
20260506101405 43 90 0.0 6.0 0.00 0.00 0.00 63 1020.4
20260506100805 44 67 0.0 2.0 0.00 0.00 0.00 62 1020.2
20260506100205 44 39 0.0 4.0 0.00 0.00 0.00 63 1020.2
20260506095618 44 50 0.0 3.0 0.00 0.00 0.00 62 1020.2
20260506095042 44 77 0.0 4.0 0.00 0.00 0.00 62 1020.0
20260506094405 45 87 3.0 6.0 0.00 0.00 0.00 59 1019.9
20260506093805 44 128 1.0 3.0 0.00 0.00 0.00 64 1019.8
20260506093205 44 123 0.0 4.0 0.00 0.00 0.00 62 1019.8
20260506092605 44 114 2.0 5.0 0.00 0.00 0.00 63 1019.7
20260506092005 43 123 1.0 2.0 0.00 0.00 0.00 64 1019.7
20260506091405 43 84 0.0 2.0 0.00 0.00 0.00 62 1019.7
20260506090805 43 76 0.0 3.0 0.00 0.00 0.00 63 1019.7
20260506090205 43 85 3.0 4.0 0.00 0.00 0.00 60 1019.6
20260506085605 45 77 0.0 4.0 0.00 0.00 0.00 59 1019.5
20260506085005 45 96 0.0 6.0 0.00 0.00 0.00 59 1019.5
20260506084405 46 97 1.0 4.0 0.00 0.00 0.00 57 1019.5
20260506083830 45 84 0.0 3.0 0.00 0.00 0.00 58 1019.5
20260506083205 46 109 0.0 3.0 0.00 0.00 0.00 55 1019.5
20260506082605 48 84 0.0 4.0 0.00 0.00 0.00 50 1019.5
20260506082005 50 81 0.0 3.0 0.00 0.00 0.00 53 1019.6
20260506081405 48 92 2.0 4.0 0.00 0.00 0.00 54 1019.6
20260506080806 47 119 0.0 3.0 0.00 0.00 0.00 55 1019.6
20260506080218 47 120 0.0 2.0 0.00 0.00 0.00 53 1019.6
20260506073205 49 85 0.0 3.0 0.00 0.00 0.00 49 1019.7
20260506072606 51 90 1.0 2.0 0.00 0.00 0.00 46 1019.8
20260506072018 53 31 0.0 3.0 0.00 0.00 0.00 44 1019.7
20260506071406 54 124 0.0 6.0 0.00 0.00 0.00 44 1019.7
20260506070805 55 101 3.0 7.0 0.00 0.00 0.00 39 1019.7
20260506070205 53 112 2.0 3.0 0.00 0.00 0.00 44 1019.8
20260506062005 52 49 0.0 3.0 0.00 0.00 0.00 45 1019.9
20260506061430 53 64 0.0 3.0 0.00 0.00 0.00 43 1019.8
20260506060830 54 49 0.0 2.0 0.00 0.00 0.00 42 1019.8
20260506060205 55 114 0.0 3.0 0.00 0.00 0.00 40 1019.8
20260506051405 58 96 4.0 6.0 0.00 0.00 0.00 37 1019.8
20260506050805 59 73 3.0 6.0 0.00 0.00 0.00 34 1019.7
20260506050230 58 78 3.0 6.0 0.00 0.00 0.00 35 1019.7
20260506045005 57 82 3.0 5.0 0.00 0.00 0.00 36 1019.7
20260506044405 57 70 2.0 6.0 0.00 0.00 0.00 37 1019.7
20260506043830 58 80 0.0 7.0 0.00 0.00 0.00 35 1019.6
20260506043205 59 85 3.0 6.0 0.00 0.00 0.00 36 1019.5
20260506042617 59 70 0.0 2.0 0.00 0.00 0.00 39 1019.4
20260506042005 61 100 0.0 6.0 0.00 0.00 0.00 35 1019.4
20260506041405 62 76 0.0 3.0 0.00 0.00 0.00 34 1019.4
20260506040805 63 91 0.0 3.0 0.00 0.00 0.00 37 1019.3
20260506040205 63 109 0.0 0.0 0.00 0.00 0.00 36 1019.2
20260506035605 63 123 0.0 2.0 0.00 0.00 0.00 35 1019.2
20260506035005 62 81 0.0 0.0 0.00 0.00 0.00 36 1019.1
20260506034405 62 194 0.0 0.0 0.00 0.00 0.00 38 1019.0
20260506033805 63 79 0.0 0.0 0.00 0.00 0.00 33 1018.9
20260506033205 66 79 0.0 3.0 0.00 0.00 0.00 33 1018.9
20260506032605 69 144 0.0 3.0 0.00 0.00 0.00 29 1018.8
20260506032030 69 160 0.0 2.0 0.00 0.00 0.00 29 1018.7
20260506031405 70 191 0.0 2.0 0.00 0.00 0.00 27 1018.6
20260506030805 70 187 0.0 5.0 0.00 0.00 0.00 26 1018.6
20260506030205 66 249 0.0 0.0 0.00 0.00 0.00 29 1018.6
20260506025605 66 54 0.0 3.0 0.00 0.00 0.00 33 1018.5
20260506025005 68 30 0.0 4.0 0.00 0.00 0.00 27 1018.4
20260506024443 68 42 0.0 4.0 0.00 0.00 0.00 26 1018.3
20260506023805 69 58 0.0 7.0 0.00 0.00 0.00 24 1018.3
20260506023205 70 56 2.0 5.0 0.00 0.00 0.00 25 1018.2
20260506022605 70 41 2.0 6.0 0.00 0.00 0.00 24 1018.1
20260506022006 71 59 1.0 5.0 0.00 0.00 0.00 24 1018.1
20260506021405 73 87 2.0 7.0 0.00 0.00 0.00 23 1018.0